Погода в Дубовце

Россия / Липецкая область     52°16′33″N   38°11′10″E
темп.,
°C
ветер,
м/с
пор.,
м/с
влажн.,
%
обл.,
%
осадки,
мм/ч
давл.,
гПа
погр.,
м
31 июля, сб
сб3100:00+19з35850 0.0 100899
03:00+17з36890 0.0 1008102
06:00+18з35820 0.0 1009136
09:00+25зсз454915 0.0 1009759
12:00+29з453314 0.0 10092391
15:00+30з56295 0.0 10092744
18:00+29з66340 0.0 10092256
21:00+23з22506 0.0 101118
1 августа, вс
вс100:00+20с11605 0.0 101211
03:00+19ю01665 0.0 101211
06:00+20вюв11665 0.0 101311
09:00+27ю334338 0.0 1013594
12:00+31ююз443147 0.0 10132637
15:00+33ююз552616 0.0 10123045
18:00+32ю44270 0.0 10101841
21:00+26ююв33392 0.0 101132
2 августа, пн
пн200:00+22ю485934 0.0 1011124
03:00+21ю48690 0.0 1011138
06:00+21ю48632 0.0 1011171
09:00+28ююз57463 0.0 1010625
12:00+33ююз7103236 0.0 10092448
15:00+34ююз68256 0.0 10073057
18:00+30юз2435100 0.1 1006269
21:00+24юз51060100 0.3 1006219
3 августа, вт
вт300:00+21зюз91579100 0.4 1008627
03:00+19зюз4991100 0.5 1007310
06:00+19ююз5887100 0.0 1008367
09:00+22зюз686280 0.0 1009899
12:00+23з6852100 0.0 10101312
15:00+26з774231 0.0 10102029
18:00+23зсз674994 0.0 10111431
21:00+21сз224982 0.0 101348
4 августа, ср
ср400:00+17сз33790 0.0 101339
03:00+15зсз22855 0.0 101420
06:00+16зсз22805 0.0 101565
09:00+22зсз335447 0.0 1016789
12:00+26сз443699 0.0 10152511
15:00+26з243063 0.0 10152470
18:00+24ссз233446 0.0 1016773
21:00+19ссв344962 0.0 101773